Wappingers Falls, NY

8:30 PM EDT on August 25, 2016 (GMT -0400)
Dutchess County

Weather History for KPOU - February, 2011

Change the Weather History Date:

Friday, February 25, 2011

  Actual Average Record
Temperature  
Mean Temperature 32 °F 31 °F  
Max Temperature 35 °F 42 °F 70 °F (1976)
Min Temperature 29 °F 20 °F -3 °F (1964)
Degree Days  
Heating Degree Days 33 34  
Month to date heating degree days 947 917  
Since 1 July heating degree days 4556 4469  
Cooling Degree Days 0 0  
Month to date cooling degree days 0 0  
Year to date cooling degree days 0 0  
Moisture  
Dew Point 31 °F    
Average Humidity 91    
Maximum Humidity 100    
Minimum Humidity 59    
Precipitation  
Precipitation 1.18 in 0.11 in 2.14 in (2010)
Month to date precipitation 2.94 2.35  
Year to date precipitation 4.72 5.43  
Sea Level Pressure  
Sea Level Pressure 29.61 in    
Wind  
Wind Speed 6 mph (NNW)    
Max Wind Speed 22 mph    
Max Gust Speed 31 mph    
Visibility 3 miles    
Events Fog , Rain , Snow    
T = Trace of Precipitation, MM = Missing Value Source: NWS Daily Summary

Daily Weather History Graph

Daily Weather History Graph

Search for Another Location

Airport or City:

Trip Planner

Search our weather history database for the weather conditions in past years. The results will help you decide how hot, cold, wet, or windy it might be!

Date:

Astronomy

Feb. 25, 2011 Rise Set
Actual Time 6:36 AM EST 5:40 PM EST
Civil Twilight 6:08 AM EST 6:08 PM EST
Nautical Twilight 5:36 AM EST 6:41 PM EST
Astronomical Twilight 5:04 AM EST 7:13 PM EST
Moon 1:41 AM EST (2/25) 10:54 AM EST (2/25)
Length of Visible Light 12h 00m
Length of Day
11h 04m
Last Quarter, 42% of the Moon is Illuminated
Feb 25
Last Quarter
Mar 4
New
Mar 12
First Quarter
Mar 19
Full
Mar 26
Last Quarter

Hourly Weather History & Observations

Time (EST) Temp. Windchill Dew Point Humidity Pressure Visibility Wind Dir Wind Speed Gust Speed Precip Events Conditions
12:53 AM 34.0 °F - 33.1 °F 96% 29.94 in 2.5 mi Calm Calm - 0.01 in   Overcast
1:06 AM 33.8 °F - 32.0 °F 93% 29.93 in 1.2 mi Calm Calm - 0.00 in Rain Light Rain
1:26 AM 33.8 °F - 33.8 °F 100% 29.92 in 2.5 mi Calm Calm - 0.01 in Rain Light Rain
1:33 AM 33.8 °F - 33.8 °F 100% 29.92 in 3.0 mi Calm Calm - 0.01 in Rain Light Rain
1:53 AM 34.0 °F - 32.0 °F 92% 29.91 in 2.5 mi Calm Calm - 0.01 in Rain Light Rain
2:15 AM 33.8 °F - 33.8 °F 100% 29.91 in 1.2 mi Calm Calm - 0.01 in Rain Light Rain
2:32 AM 33.8 °F - 33.8 °F 100% 29.90 in 0.8 mi Calm Calm - 0.04 in Rain Light Rain
2:53 AM 33.1 °F - 32.0 °F 96% 29.87 in 0.5 mi Calm Calm - 0.05 in Fog , Rain Light Rain
3:02 AM 33.8 °F - 32.0 °F 93% 29.86 in 0.5 mi Calm Calm - 0.00 in Fog , Rain Light Rain
3:53 AM 34.0 °F - 32.0 °F 92% 29.82 in 0.8 mi Calm Calm - 0.02 in Rain Light Rain
4:19 AM 33.8 °F 30.8 °F 32.0 °F 93% 29.81 in 0.5 mi North 3.5 mph - 0.02 in Fog , Rain Light Rain
4:53 AM 34.0 °F - 33.1 °F 96% 29.77 in 1.8 mi Calm Calm - 0.05 in Rain Light Rain
5:53 AM 34.0 °F - 33.1 °F 96% 29.71 in 0.8 mi Calm Calm - 0.11 in Rain Rain
6:29 AM 33.8 °F 30.8 °F 33.8 °F 100% 29.68 in 0.5 mi North 3.5 mph - 0.10 in Fog , Rain Rain
6:39 AM 33.8 °F - 33.8 °F 100% 29.67 in 1.0 mi Calm Calm - 0.12 in Rain Light Rain
6:49 AM 33.8 °F - 33.8 °F 100% 29.68 in 1.2 mi Calm Calm - 0.15 in Rain Rain
6:53 AM 34.0 °F - 33.1 °F 96% 29.67 in 1.2 mi Calm Calm - 0.16 in Rain Rain
7:53 AM 34.0 °F 29.8 °F 33.1 °F 96% 29.59 in 1.5 mi NNE 4.6 mph - 0.19 in Rain Rain
8:53 AM 34.0 °F 28.8 °F 33.1 °F 96% 29.50 in 1.8 mi North 5.8 mph - 0.13 in Rain Rain
9:15 AM 33.8 °F - 33.8 °F 100% 29.47 in 2.0 mi Calm Calm - 0.07 in Rain Rain
9:26 AM 33.8 °F 30.8 °F 33.8 °F 100% 29.44 in 1.8 mi NNE 3.5 mph - 0.11 in Rain Rain
9:53 AM 34.0 °F 28.8 °F 33.1 °F 96% 29.41 in 2.5 mi NW 5.8 mph - 0.15 in Rain Light Rain
10:00 AM 33.8 °F 30.8 °F 33.8 °F 100% 29.40 in 4.0 mi Variable 3.5 mph - 0.00 in Rain Light Rain
10:24 AM 33.8 °F 29.6 °F 33.8 °F 100% 29.38 in 1.8 mi NNW 4.6 mph - 0.03 in Rain Rain
10:46 AM 33.8 °F 27.7 °F 33.8 °F 100% 29.36 in 2.5 mi North 6.9 mph - 0.05 in Rain Light Rain
10:53 AM 34.0 °F 28.8 °F 33.1 °F 96% 29.35 in 3.0 mi North 5.8 mph - 0.05 in Rain Light Rain
11:10 AM 33.8 °F 28.6 °F 33.8 °F 100% 29.34 in 2.5 mi NNW 5.8 mph - 0.01 in Rain Light Rain
11:53 AM 34.0 °F 26.0 °F 33.1 °F 96% 29.30 in 2.5 mi North 10.4 mph - 0.04 in Rain Rain
12:28 PM 33.8 °F 30.8 °F 33.8 °F 100% 29.29 in 1.5 mi Variable 3.5 mph - 0.10 in Rain Rain
12:41 PM 33.8 °F 27.0 °F 33.8 °F 100% 29.29 in 2.5 mi North 8.1 mph - 0.14 in Rain Rain
12:53 PM 34.0 °F 27.2 °F 33.1 °F 96% 29.29 in 2.5 mi North 8.1 mph - 0.19 in Rain Rain
1:08 PM 33.8 °F 27.7 °F 33.8 °F 100% 29.29 in 4.0 mi North 6.9 mph - 0.02 in Rain Light Rain
1:53 PM 34.0 °F 28.8 °F 32.0 °F 92% 29.27 in 4.0 mi NNW 5.8 mph - 0.03 in   Overcast
2:53 PM 34.0 °F 26.6 °F 32.0 °F 92% 29.26 in 6.0 mi North 9.2 mph - N/A   Overcast
3:53 PM 34.0 °F 23.0 °F 30.0 °F 85% 29.35 in 3.0 mi North 18.4 mph 25.3 mph 0.00 in   Overcast
4:43 PM 33.8 °F 23.9 °F 28.4 °F 81% 29.40 in 3.0 mi North 15.0 mph 27.6 mph 0.00 in   Overcast
4:53 PM 34.0 °F 24.2 °F 28.9 °F 82% 29.42 in 3.0 mi North 15.0 mph 25.3 mph 0.00 in   Haze
5:32 PM 33.8 °F 23.9 °F 28.4 °F 81% 29.50 in 2.5 mi NNW 15.0 mph 23.0 mph 0.00 in Snow Light Snow
5:53 PM 34.0 °F 27.2 °F 27.0 °F 75% 29.51 in 2.5 mi NNW 8.1 mph 21.9 mph 0.00 in Snow Light Snow
6:00 PM 33.8 °F 24.3 °F 26.6 °F 75% 29.53 in 10.0 mi NNW 13.8 mph 21.9 mph N/A   Overcast
6:53 PM 35.1 °F 29.3 °F 28.0 °F 76% 29.61 in 10.0 mi NW 6.9 mph - N/A   Overcast
7:53 PM 35.1 °F 24.8 °F 25.0 °F 67% 29.74 in 10.0 mi WNW 17.3 mph 25.3 mph N/A   Overcast
8:53 PM 34.0 °F 25.5 °F 21.0 °F 59% 29.82 in 10.0 mi NW 11.5 mph - N/A   Clear
9:53 PM 32.0 °F 24.8 °F 19.9 °F 61% 29.91 in 10.0 mi WNW 8.1 mph - N/A   Clear
10:53 PM 32.0 °F 25.6 °F 19.9 °F 61% 29.97 in 10.0 mi West 6.9 mph - N/A   Overcast
11:53 PM 30.0 °F 26.5 °F 19.0 °F 64% 29.99 in 10.0 mi NW 3.5 mph - N/A   Clear